Pierceville, KS

3:29 PM CST on January 19, 2017 (GMT -0600)
Garden City Regional

Weather History for KGCK - May, 2012

Change the Weather History Date:

Sunday, May 6, 2012

  Actual Average Record
Temperature  
Mean Temperature 62 °F 60 °F  
Max Temperature 70 °F 74 °F 96 °F (2014)
Min Temperature 55 °F 47 °F 33 °F (1989)
Degree Days  
Heating Degree Days 2 6  
Month to date heating degree days 41  
Since 1 July heating degree days 5103  
Cooling Degree Days 0 1  
Month to date cooling degree days 6  
Year to date cooling degree days 18  
Growing Degree Days 12 (Base 50)    
Moisture  
Dew Point 54 °F    
Average Humidity 74    
Maximum Humidity 94    
Minimum Humidity 46    
Precipitation  
Precipitation 0.00 in 0.08 in 0.50 in (1969)
Month to date precipitation 0.45  
Year to date precipitation 4.51  
Sea Level Pressure  
Sea Level Pressure 29.88 in    
Wind  
Wind Speed 23 mph (NNE)    
Max Wind Speed 37 mph    
Max Gust Speed 53 mph    
Visibility 10 miles    
Events Rain    
T = Trace of Precipitation, MM = Missing Value Source: NWS Daily Summary

Daily Weather History Graph

Daily Weather History Graph

Search for Another Location

Airport or City:

Trip Planner

Search our weather history database for the weather conditions in past years. The results will help you decide how hot, cold, wet, or windy it might be!

Date:

Astronomy

May. 06, 2012 Rise Set
Actual Time 6:40 AM CDT 8:38 PM CDT
Civil Twilight 6:11 AM CDT 9:07 PM CDT
Nautical Twilight 5:37 AM CDT 9:42 PM CDT
Astronomical Twilight 4:59 AM CDT 10:20 PM CDT
Moon 9:44 PM CDT (5/6) 6:53 AM CDT (5/6)
Length of Visible Light 14h 55m
Length of Day
13h 57m
Full, 100% of the Moon is Illuminated
May 6
Full
May 12
Last Quarter
May 20
New
May 28
First Quarter
Jun 4
Full

Hourly Weather History & Observations

Time (CDT) Temp. Dew Point Humidity Pressure Visibility Wind Dir Wind Speed Gust Speed Precip Events Conditions
12:54 AM 70.0 °F 60.1 °F 71% 29.60 in 10.0 mi SE 15.0 mph - N/A   Clear
1:54 AM 70.0 °F 64.9 °F 84% 29.59 in 8.0 mi SSE 16.1 mph - N/A   Clear
2:54 AM 68.0 °F 64.9 °F 90% 29.61 in 6.0 mi SE 8.1 mph - N/A   Clear
3:19 AM 66.2 °F 64.4 °F 94% 29.77 in 6.0 mi WNW 16.1 mph 23.0 mph N/A   Partly Cloudy
3:54 AM 62.1 °F 55.9 °F 80% 29.67 in 10.0 mi NNW 18.4 mph 23.0 mph N/A   Clear
4:54 AM 61.0 °F 57.0 °F 87% 29.69 in 10.0 mi North 23.0 mph 32.2 mph N/A   Clear
5:39 AM 60.8 °F 55.4 °F 82% 29.81 in 10.0 mi North 27.6 mph 36.8 mph N/A   Mostly Cloudy
5:52 AM 62.6 °F 55.4 °F 77% 29.82 in 10.0 mi North 29.9 mph 42.6 mph N/A   Mostly Cloudy
5:54 AM 62.1 °F 55.9 °F 80% 29.71 in 10.0 mi North 31.1 mph 42.6 mph N/A   Overcast
6:54 AM 62.1 °F 55.9 °F 80% 29.74 in 10.0 mi NNE 36.8 mph 52.9 mph N/A   Overcast
7:54 AM 62.1 °F 55.0 °F 78% 29.80 in 10.0 mi NNE 36.8 mph 43.7 mph N/A   Mostly Cloudy
8:54 AM 62.1 °F 55.0 °F 78% 29.86 in 10.0 mi NNE 36.8 mph 46.0 mph N/A   Overcast
9:13 AM 60.8 °F 55.4 °F 82% 29.95 in 10.0 mi NNE 31.1 mph 43.7 mph N/A   Overcast
9:54 AM 61.0 °F 54.0 °F 78% 29.89 in 10.0 mi NNE 35.7 mph 42.6 mph N/A   Overcast
10:19 AM 57.2 °F 53.6 °F 88% 29.98 in 8.0 mi NNE 29.9 mph 40.3 mph 0.00 in Rain Light Rain
10:51 AM 55.4 °F 53.6 °F 94% 29.99 in 8.0 mi North 26.5 mph 41.4 mph 0.00 in Rain Light Rain
10:54 AM 55.9 °F 53.1 °F 90% 29.94 in 8.0 mi North 29.9 mph 41.4 mph 0.00 in Rain Light Rain
11:17 AM 57.2 °F 51.8 °F 82% 30.01 in 10.0 mi North 31.1 mph 40.3 mph 0.00 in   Overcast
11:54 AM 59.0 °F 52.0 °F 78% 29.95 in 10.0 mi North 29.9 mph 39.1 mph 0.00 in   Overcast
12:25 PM 62.6 °F 51.8 °F 68% 30.00 in 10.0 mi North 32.2 mph 41.4 mph N/A   Overcast
12:54 PM 61.0 °F 51.1 °F 70% 29.94 in 10.0 mi North 28.8 mph 38.0 mph N/A   Overcast
1:54 PM 64.0 °F 53.1 °F 67% 29.95 in 10.0 mi NNE 23.0 mph 34.5 mph N/A   Overcast
2:54 PM 66.0 °F 52.0 °F 60% 29.94 in 10.0 mi NNE 27.6 mph 34.5 mph N/A   Overcast
3:54 PM 66.0 °F 53.1 °F 63% 29.95 in 10.0 mi NNE 25.3 mph 32.2 mph N/A   Overcast
4:54 PM 66.0 °F 53.1 °F 63% 29.94 in 10.0 mi NNE 25.3 mph - N/A   Overcast
5:54 PM 64.9 °F 52.0 °F 63% 29.94 in 10.0 mi NE 20.7 mph 29.9 mph N/A   Overcast
6:54 PM 64.0 °F 50.0 °F 60% 29.94 in 10.0 mi NE 18.4 mph 27.6 mph N/A   Overcast
7:54 PM 63.0 °F 50.0 °F 63% 29.96 in 10.0 mi NE 12.7 mph - N/A   Overcast
8:54 PM 62.1 °F 48.0 °F 60% 29.98 in 10.0 mi NNE 18.4 mph - N/A   Overcast
9:54 PM 62.1 °F 46.0 °F 56% 30.02 in 10.0 mi NNE 12.7 mph 21.9 mph N/A   Overcast
10:54 PM 60.1 °F 45.0 °F 57% 30.07 in 10.0 mi NNE 11.5 mph - N/A   Overcast
11:54 PM 57.9 °F 37.0 °F 46% 30.08 in 10.0 mi NNE 24.2 mph 29.9 mph N/A   Overcast